Regional Weather Roundup
Issued by NWS Charleston, SC

Current Version | Previous Version | Graphics & Text | Print | Product List | Glossary Off
Versions: 1 2 3 4 5 6 7 8 9 10 11 12 13 14 15 16 17 18 19 20 21 22 23 24 25 26 27 28 29 30 31 32 33 34 35 36 37 38 39 40 41 42 43 44 45 46 47 48 49 50

572
ASUS42 KCHS 022228
RWRCHS

REGIONAL WEATHER ROUNDUP
NATIONAL WEATHER SERVICE CHARLESTON SC
600 PM EDT MON MAY 02 2016

NOTE: "FAIR" INDICATES FEW OR NO CLOUDS BELOW 12,000 FEET WITH NO
SIGNIFICANT WEATHER AND/OR OBSTRUCTIONS TO VISIBILITY.

NOT ALL STATIONS ARE QUALITY CONTROLLED. USE DATA WITH CAUTION...
ESPECIALLY DEWPOINT OBSERVATIONS.

SCZ027-030-031-034>040-042>050-022300-
...SOUTHEAST SOUTH CAROLINA...

CITY           SKY/WX    TMP DP  RH WIND       PRES   REMARKS
N CHARLESTON   CLOUDY    78  67  68 S15       29.95F
WATERFRONT PRK   N/A     76  72  87 S9        29.95S
MOUNT PLEASANT NOT AVBL
JOHNS ISLAND   CLOUDY    75  73  94 S9        29.96F
PINOPOLIS        N/A     81  68  65 VRB3      29.85F
MONCKS CORNER  FAIR      77  61  57 S9        29.94F
SUMMERVILLE    MOCLDY    79  68  69 S5        29.96S
BEAUFORT MCAS  LGT RAIN  74  72  93 W3        29.95F FOG
BEAUFORT ARPT  MOCLDY    75  72  88 S8        29.96F
HILTON HEAD IS PTSUNNY   77  70  78 S9        29.97F
WALTERBORO     LGT RAIN  75  73  94 S9        29.96S
ALLENDALE      TSTM      70  66  88 S8        29.98R

...SOUTHERN MIDLANDS AND PEE DEE...

CITY           SKY/WX    TMP DP  RH WIND       PRES   REMARKS
GEORGETOWN     FAIR      77  66  69 S9        29.97S
KINGSTREE      FAIR      79  66  65 S5        29.94R
ORANGEBURG     CLOUDY    79  67  66 S15G22    29.92S
BARNWELL       MOCLDY    81  70  69 SE14      29.93R
AIKEN          FAIR      73  64  73 SW3       29.95F
MANNING        TSTM      68  66  94 SE3       29.96R
COLUMBIA       CLOUDY    77  69  76 N3        29.91S
SUMTER         NOT AVBL
FLORENCE       CLOUDY    81  64  56 S13       29.93R
MYRTLE BEACH   PTSUNNY   77  66  69 S15       29.96F
N MYRTLE BEACH PTSUNNY   76  70  82 S14       29.95F

$$

GAZ063-065-086>088-099>101-113>116-118-119-134>141-150-022300-
...SOUTHEAST GEORGIA...

CITY           SKY/WX    TMP DP  RH WIND       PRES   REMARKS
SAVANNAH ARPT  CLOUDY    75  71  87 E8        29.94F
HUNTER AAF     NOT AVBL
FORT STEWART   NOT AVBL
STATESBORO     CLOUDY    74  72  92 SE10      29.96R
SYLVANIA       CLOUDY    72  71  96 SE5       29.94F
CLAXTON        TSTM      70  70  99 NE12      29.98R VSB 1/2

...CSRA...CENTRAL AND FAR SOUTHEAST GEORGIA...

CITY           SKY/WX    TMP DP  RH WIND       PRES   REMARKS
THOMSON        CLOUDY    80  75  85 W3        29.95F
AUGUSTA-BUSH   TSTM      71  65  81 N7G30     29.90F VSB 3/4
AUGUSTA-DANIEL LGT RAIN  72  67  84 NW10      29.93S
SWAINSBORO     FAIR      82  68  61 W6        29.92S
VIDALIA        CLOUDY    73  68  83 CALM      29.94R
EASTMAN        FAIR      77  68  72 CALM      29.95F
HAZLEHURST     FAIR      82  69  64 CALM      29.92S
ALMA           TSTM      73  69  87 SW15G21   29.96R VSB 3/4
WAYCROSS       PTSUNNY   79  71  76 SW5       29.93S
JESUP          LGT RAIN  73  72  94 CALM      29.95R
BAXLEY         PTSUNNY   79  70  73 SW5       29.92S
BRUNSWICK      PTSUNNY   82  73  74 S9        29.96R
SAINT SIMONS   PTSUNNY   77  73  87 SE10      29.94F

$$

SCZ027-028-034-036>038-045-046-048>050-GAZ119-141-022300-
...LAKE AND SUPPLEMENTAL COASTAL OBSERVATIONS...

STATION/POSITION TIME  TEMP    WIND        PRES    WAVE   SWELL
                       AIR SEA DIR/SP/G            HT/PER HT/PER/DIR
                 (UTC) (F)     (DEG/KT/KT) (MB)    (FT/S) (FT/S/D)
WINYAH BAY       2145   78     190/ 14     1013.0F
LAKE MURRAY      2100   75     270/  7/ 10 1012.9F
ACE BASIN NERRS  2100   75        CALM     1015.0S
FORT PULASKI     2200   76 74              1014.6F
SAPELO ISLAND    2200   77     160/  8     1014.0F

$$

ANZ835-935-AMZ111-154-330-350-352-354-370-450-454-472-022300-
...C-MAN AND BUOY OBSERVATIONS...

STATION/POSITION TIME  TEMP    WIND        PRES    WAVE   SWELL
                       AIR SEA DIR/SP/G            HT/PER HT/PER/DIR
                 (UTC) (F)     (DEG/KT/KT) (MB)    (FT/S) (FT/S/D)
BUOY 41004       2150   76 76  190/ 10/ 12 1014.8F   3/10   2/10
BUOY 41008       NOT AVBL
FOLLY BEACH CMAN 2200   75     170/ 12/ 14 1014.7F
CAPERS NEARSHORE 2208   74 74  200/ 14/ 17 1014.4F
FRIPP NEARSHORE  2108   75 75  190/ 10/ 14 1014.5R


STATION/POSITION TIME  TEMP    WIND        PRES    WAVE   SWELL
                       AIR SEA DIR/SP/G            HT/PER HT/PER/DIR
                 (UTC) (F)     (DEG/KT/KT) (MB)    (FT/S) (FT/S/D)
5E ST. MARYS GA  2121      75                N/A     3/ 6
FRYING PAN BUOY  2200   75 74  180/ 10/ 10 1015.1S
BUOY 41025       2150   75 74  200/ 17/ 19 1014.5F   5/11   3/ 90/11
CAPE LOOKOUT NC  2200   72     210/ 10/ 13 1014.5F
BUOY 41002       2150   74 75  170/ 12/ 14 1018.2F   4/11   3/ 30/11
BUOY 41010       2120   78 79  160/ 12/ 14 1016.9F
ST AUGUSTINE FL  2200   76 75  150/ 12/ 13 1015.1F


$$




USA.gov is the U.S. government's official web portal to all federal, state and local government web resources and services.